Weather History for Charlevoix, MI

Change the Weather History Date:

Sunday, December 29, 2013

  Actual Average Record
Temperature  
Mean Temperature 25 °F -  
Max Temperature 38 °F 29 °F 42 °F (2003)
Min Temperature 11 °F 17 °F 11 °F (2013)
Degree Days  
Heating Degree Days 40    
Moisture  
Dew Point 17 °F    
Average Humidity 81    
Maximum Humidity 99    
Minimum Humidity 58    
Precipitation  
Precipitation 0.00 in - - ()
Sea Level Pressure  
Sea Level Pressure 29.87 in    
Wind  
Wind Speed 11 mph (NNW)    
Max Wind Speed 23 mph    
Max Gust Speed 30 mph    
Visibility 7 miles    
Events Snow    
Averages and records for this station are not official NWS values.
T = Trace of Precipitation, MM = Missing Value Source: NWS Daily Summary

Daily Weather History Graph

Daily Weather History Graph

Search for Another Location

Airport:

Trip Planner

Search our weather history database for the weather conditions in past years. The results will help you decide how hot, cold, wet, or windy it might be!

Date:

Astronomy

Dec. 29, 2013 Rise Set
Actual Time 8:20 AM EST 5:06 PM EST
Civil Twilight 7:46 AM EST 5:40 PM EST
Nautical Twilight 7:08 AM EST 6:17 PM EST
Astronomical Twilight 6:32 AM EST 6:53 PM EST
Moon 4:59 AM EST (12/29) 2:47 PM EST (12/29)
Length of Visible Light 9h 54m
Length of Day
8h 46m
Waning Crescent, 11% of the Moon is Illuminated
Dec 29
Waning Crescent
Jan 1
New
Jan 7
First Quarter
Jan 15
Full
Jan 24
Last Quarter

Hourly Weather History & Observations

Time (EST) Temp. Windchill Dew Point Humidity Pressure Visibility Wind Dir Wind Speed Gust Speed Precip Events Conditions
12:14 AM 32.5 °F - 32.2 °F 99% 29.74 in 7.0 mi Calm Calm - N/A   Overcast
12:35 AM 36.7 °F 32.0 °F 34.0 °F 90% 29.73 in 10.0 mi SSW 5.8 mph - N/A   Mostly Cloudy
12:55 AM 37.4 °F 32.1 °F 33.4 °F 86% 29.72 in 10.0 mi SSW 6.9 mph - N/A   Scattered Clouds
1:14 AM 37.6 °F 33.1 °F 33.3 °F 84% 29.71 in 10.0 mi SW 5.8 mph - N/A   Scattered Clouds
1:35 AM 37.8 °F 32.5 °F 33.1 °F 83% 29.72 in 10.0 mi SW 6.9 mph - N/A   Scattered Clouds
1:54 AM 37.8 °F 33.3 °F 32.4 °F 81% 29.72 in 10.0 mi SW 5.8 mph - N/A   Mostly Cloudy
2:15 AM 38.3 °F - 32.2 °F 79% 29.72 in 10.0 mi Calm Calm - N/A   Overcast
2:35 AM 38.1 °F 32.3 °F 32.7 °F 81% 29.71 in 10.0 mi West 8.1 mph - N/A   Overcast
2:54 AM 37.0 °F 32.4 °F 34.5 °F 91% 29.71 in 5.0 mi West 5.8 mph - N/A   Overcast
3:15 AM 36.5 °F 31.8 °F 33.3 °F 88% 29.70 in 7.0 mi WSW 5.8 mph - N/A   Overcast
3:35 AM 36.5 °F 33.9 °F 33.3 °F 88% 29.70 in 7.0 mi SW 3.5 mph - N/A   Scattered Clouds
3:54 AM 36.5 °F 31.0 °F 32.9 °F 87% 29.72 in 7.0 mi WSW 6.9 mph - N/A   Scattered Clouds
4:15 AM 36.1 °F 30.6 °F 33.6 °F 91% 29.72 in 5.0 mi West 6.9 mph - N/A   Mostly Cloudy
4:35 AM 36.0 °F 28.0 °F 34.2 °F 93% 29.71 in 4.0 mi West 11.5 mph - N/A   Overcast
4:55 AM 34.5 °F 26.2 °F 33.3 °F 95% 29.70 in 5.0 mi West 11.5 mph - N/A   Overcast
5:15 AM 34.3 °F 27.7 °F 33.3 °F 96% 29.71 in 4.0 mi WNW 8.1 mph - N/A   Overcast
5:34 AM 31.5 °F 19.4 °F 30.2 °F 95% 29.72 in 7.0 mi NNW 19.6 mph 27.6 mph N/A   Overcast
5:55 AM 28.2 °F 14.2 °F 27.1 °F 96% 29.73 in 10.0 mi North 23.0 mph 29.9 mph N/A   Overcast
6:15 AM 27.3 °F 13.6 °F 26.1 °F 95% 29.74 in 10.0 mi North 20.7 mph 29.9 mph N/A   Overcast
6:34 AM 26.1 °F 12.0 °F 24.8 °F 95% 29.76 in 10.0 mi North 20.7 mph 29.9 mph N/A   Overcast
6:55 AM 24.8 °F 10.7 °F 23.7 °F 96% 29.77 in 4.0 mi North 19.6 mph 27.6 mph N/A   Overcast
7:15 AM 23.7 °F 8.9 °F 23.0 °F 97% 29.78 in 3.0 mi North 20.7 mph 24.2 mph N/A   Overcast
7:34 AM 23.0 °F 9.2 °F 22.5 °F 98% 29.80 in 4.0 mi North 17.3 mph 25.3 mph N/A   Overcast
7:55 AM 23.0 °F 9.2 °F 22.1 °F 96% 29.82 in 4.0 mi North 17.3 mph 23.0 mph N/A   Overcast
8:15 AM 22.5 °F 9.9 °F 21.6 °F 96% 29.83 in 7.0 mi North 13.8 mph 21.9 mph N/A   Overcast
8:34 AM 22.1 °F 8.9 °F 21.2 °F 96% 29.84 in 7.0 mi North 15.0 mph 21.9 mph N/A   Overcast
8:55 AM 22.3 °F 8.7 °F 21.4 °F 96% 29.85 in 7.0 mi North 16.1 mph 20.7 mph N/A   Overcast
9:15 AM 21.9 °F 8.2 °F 20.1 °F 93% 29.86 in 5.0 mi North 16.1 mph 23.0 mph N/A   Overcast
9:34 AM 21.4 °F 7.5 °F 19.4 °F 92% 29.86 in 7.0 mi North 16.1 mph 21.9 mph N/A   Overcast
9:55 AM 20.8 °F 6.8 °F 18.7 °F 91% 29.87 in 10.0 mi North 16.1 mph 23.0 mph N/A   Overcast
10:15 AM 20.3 °F 5.7 °F 18.3 °F 92% 29.87 in 4.0 mi North 17.3 mph 26.5 mph N/A   Overcast
10:34 AM 20.1 °F 5.0 °F 17.8 °F 91% 29.88 in 4.0 mi North 18.4 mph 23.0 mph N/A Snow Light Snow
10:55 AM 20.1 °F 5.9 °F 17.1 °F 88% 29.88 in 5.0 mi North 16.1 mph 23.0 mph N/A Snow Light Snow
11:14 AM 19.9 °F 7.3 °F 16.9 °F 88% 29.88 in 5.0 mi North 12.7 mph 20.7 mph N/A Snow Light Snow
11:35 AM 20.3 °F 6.6 °F 17.1 °F 87% 29.87 in 3.0 mi North 15.0 mph 20.7 mph N/A Snow Light Snow
11:55 AM 20.1 °F 6.4 °F 16.2 °F 85% 29.87 in 4.0 mi North 15.0 mph 23.0 mph N/A Snow Light Snow
12:14 PM 19.8 °F 5.4 °F 15.4 °F 83% 29.87 in 2.5 mi NNW 16.1 mph 20.7 mph N/A Snow Light Snow
12:35 PM 19.0 °F 4.5 °F 14.0 °F 81% 29.87 in 2.5 mi NNW 16.1 mph 24.2 mph N/A Snow Light Snow
12:55 PM 18.1 °F 3.9 °F 13.3 °F 81% 29.88 in 2.0 mi North 15.0 mph 21.9 mph N/A Snow Light Snow
1:14 PM 17.8 °F 1.9 °F 12.7 °F 81% 29.88 in 4.0 mi North 18.4 mph 24.2 mph N/A Snow Light Snow
1:35 PM 17.6 °F 0.9 °F 12.7 °F 81% 29.88 in 1.8 mi NNW 20.7 mph 25.3 mph N/A Snow Light Snow
1:55 PM 17.6 °F 2.2 °F 12.0 °F 79% 29.88 in 3.0 mi NNW 17.3 mph 27.6 mph N/A Snow Light Snow
2:14 PM 17.6 °F 2.2 °F 11.5 °F 77% 29.89 in 5.0 mi NNW 17.3 mph 23.0 mph N/A   Haze
2:35 PM 17.2 °F 2.7 °F 11.1 °F 77% 29.89 in 7.0 mi NNW 15.0 mph 26.5 mph N/A Snow Light Snow
2:55 PM 17.2 °F 3.3 °F 10.9 °F 76% 29.89 in 5.0 mi NNW 13.8 mph 23.0 mph N/A Snow Light Snow
3:14 PM 17.1 °F 2.5 °F 10.4 °F 75% 29.90 in 7.0 mi NNW 15.0 mph 23.0 mph N/A Snow Light Snow
3:35 PM 17.1 °F 2.5 °F 10.8 °F 76% 29.91 in 2.5 mi NNW 15.0 mph 20.7 mph N/A Snow Light Snow
3:55 PM 16.5 °F 1.8 °F 9.7 °F 74% 29.92 in 4.0 mi NNW 15.0 mph 24.2 mph N/A Snow Light Snow
4:14 PM 16.3 °F 2.1 °F 9.0 °F 73% 29.93 in 5.0 mi NNW 13.8 mph 23.0 mph N/A Snow Light Snow
4:35 PM 15.8 °F 1.4 °F 9.3 °F 76% 29.94 in 7.0 mi North 13.8 mph 23.0 mph N/A   Overcast
4:54 PM 15.6 °F 1.2 °F 8.4 °F 73% 29.95 in 7.0 mi NNW 13.8 mph 20.7 mph N/A   Overcast
5:15 PM 15.3 °F -0.4 °F 6.8 °F 69% 29.96 in 5.0 mi NNW 16.1 mph 23.0 mph N/A   Haze
5:35 PM 14.9 °F -0.8 °F 6.6 °F 70% 29.97 in 10.0 mi NW 16.1 mph 21.9 mph N/A   Overcast
5:54 PM 14.7 °F -2.0 °F 5.9 °F 68% 29.97 in 7.0 mi NNW 18.4 mph 27.6 mph N/A   Overcast
6:15 PM 14.0 °F -3.0 °F 5.0 °F 67% 29.98 in 10.0 mi NNW 18.4 mph 24.2 mph N/A   Overcast
6:35 PM 14.0 °F -2.0 °F 4.8 °F 67% 29.99 in 10.0 mi NW 16.1 mph 27.6 mph N/A   Overcast
6:54 PM 14.0 °F -2.5 °F 5.2 °F 68% 29.99 in 10.0 mi NNW 17.3 mph 21.9 mph N/A   Overcast
7:15 PM 13.8 °F -2.7 °F 5.5 °F 70% 29.99 in 10.0 mi NNW 17.3 mph 23.0 mph N/A   Overcast
7:35 PM 13.6 °F -2.4 °F 4.8 °F 68% 30.00 in 10.0 mi NNW 16.1 mph 25.3 mph N/A   Overcast
7:54 PM 13.1 °F -2.0 °F 4.1 °F 67% 30.01 in 7.0 mi NNW 13.8 mph 24.2 mph N/A   Overcast
8:15 PM 13.1 °F -3.1 °F 3.7 °F 66% 30.01 in 10.0 mi NW 16.1 mph 23.0 mph N/A   Overcast
8:35 PM 13.1 °F -2.6 °F 4.5 °F 68% 30.01 in 7.0 mi NW 15.0 mph 23.0 mph N/A   Overcast
8:54 PM 13.1 °F -2.6 °F 4.6 °F 69% 30.02 in 10.0 mi NNW 15.0 mph 24.2 mph N/A   Overcast
9:15 PM 13.1 °F -3.1 °F 3.6 °F 66% 30.03 in 10.0 mi NNW 16.1 mph 25.3 mph N/A   Overcast
9:35 PM 12.7 °F -5.1 °F 2.1 °F 63% 30.03 in 10.0 mi NW 19.6 mph 26.5 mph N/A   Overcast
9:55 PM 12.9 °F -4.9 °F 1.9 °F 62% 30.04 in 10.0 mi NW 19.6 mph 28.8 mph N/A   Overcast
10:15 PM 12.6 °F -4.9 °F 1.2 °F 61% 30.04 in 10.0 mi NW 18.4 mph 25.3 mph N/A   Mostly Cloudy
10:34 PM 12.4 °F -4.6 °F 1.4 °F 62% 30.05 in 10.0 mi NW 17.3 mph 27.6 mph N/A   Overcast
10:55 PM 12.2 °F -4.3 °F -0.0 °F 58% 30.05 in 10.0 mi NNW 16.1 mph 28.8 mph N/A   Overcast
11:14 PM 12.0 °F -4.5 °F 0.1 °F 59% 30.05 in 10.0 mi NNW 16.1 mph 23.0 mph N/A   Mostly Cloudy
11:34 PM 12.0 °F -2.7 °F 0.9 °F 61% 30.05 in 10.0 mi NNW 12.7 mph 20.7 mph N/A   Mostly Cloudy
11:55 PM 11.8 °F -4.2 °F 0.5 °F 60% 30.06 in 10.0 mi NNW 15.0 mph 21.9 mph N/A   Mostly Cloudy